Weather History for Tanger, Morocco

Change the Weather History Date:

Sunday, June 16, 2013

  Actual Average Record
Temperature  
Mean Temperature 70 °F -  
Max Temperature 82 °F 81 °F 95 °F (2005)
Min Temperature 57 °F 63 °F 55 °F (1998)
Cooling Degree Days 4    
Growing Degree Days 20 (Base 50)    
Moisture  
Dew Point 60 °F    
Average Humidity 71    
Maximum Humidity 88    
Minimum Humidity 50    
Precipitation  
Precipitation 0.00 in 0.01 in - ()
Sea Level Pressure  
Sea Level Pressure 29.92 in    
Wind  
Wind Speed 4 mph ()    
Max Wind Speed 12 mph    
Max Gust Speed -    
Visibility 5.0 miles    
Events      
Averages and records for this station are not official NWS values.
T = Trace of Precipitation, MM = Missing Value Source: Averaged Metar Reports

Daily Weather History Graph

Daily Weather History Graph

Search for Another Location

Airport:

Trip Planner

Search our weather history database for the weather conditions in past years. The results will help you decide how hot, cold, wet, or windy it might be!

Date:

Astronomy

Jun. 16, 2013 Rise Set
Actual Time 6:07 AM WEST 8:41 PM WEST
Civil Twilight 5:37 AM WEST 9:11 PM WEST
Nautical Twilight 4:59 AM WEST 9:49 PM WEST
Astronomical Twilight 4:18 AM WEST 10:30 PM WEST
Moon 1:15 PM WEST (6/16) 12:52 AM WEST (6/16)
Length of Visible Light 15h 34m
Length of Day
14h 34m
Waxing Crescent, 47% of the Moon is Illuminated
Jun 16
Waxing Crescent
Jun 16
First Quarter
Jun 23
Full
Jun 30
Last Quarter
Jul 8
New

Hourly Weather History & Observations

Time (WEST) Temp. Heat Index Dew Point Humidity Pressure Visibility Wind Dir Wind Speed Gust Speed Precip Events Conditions
12:00 AM 68.0 °F - 51.8 °F 56% 29.95 in 5.0 mi Variable 1.2 mph - N/A   Partly Cloudy
12:30 AM 69.8 °F - 53.6 °F 56% 29.95 in 5.0 mi ESE 5.8 mph - N/A   Partly Cloudy
1:00 AM 69 °F - 55 °F 52% 29.95 in 5 mi ESE 4.6 mph - -   Scattered Clouds
1:00 AM 69.8 °F - 55.4 °F 60% 29.95 in 5.0 mi ESE 4.6 mph - N/A   Partly Cloudy
1:30 AM 66.2 °F - 55.4 °F 68% 29.92 in 6.2 mi SSE 5.8 mph - N/A   Partly Cloudy
2:00 AM 66.2 °F - 55.4 °F 68% 29.92 in 6.2 mi East 6.9 mph - N/A   Partly Cloudy
2:30 AM 66.2 °F - 57.2 °F 73% 29.92 in 5.0 mi Variable 2.3 mph - N/A   Partly Cloudy
3:00 AM 64.4 °F - 55.4 °F 73% 29.92 in 5.0 mi SSE 2.3 mph - N/A   Partly Cloudy
3:30 AM 60.8 °F - 55.4 °F 82% 29.92 in - Calm Calm - N/A   Unknown
4:00 AM 60 °F - 55 °F 79% 29.93 in - ENE 3.5 mph - -  
4:00 AM 60.8 °F - 55.4 °F 82% 29.92 in - ENE 3.5 mph - N/A   Unknown
4:30 AM 60.8 °F - 55.4 °F 82% 29.92 in 5.0 mi NNE 1.2 mph - N/A   Partly Cloudy
5:00 AM 59.0 °F - 53.6 °F 82% 29.92 in 5.0 mi Calm Calm - N/A   Partly Cloudy
5:30 AM 57.2 °F - 53.6 °F 88% 29.92 in 5.0 mi North 2.3 mph - N/A   Partly Cloudy
6:00 AM 59.0 °F - 55.4 °F 88% 29.92 in 5.0 mi Variable 2.3 mph - N/A   Partly Cloudy
6:30 AM 59.0 °F - 55.4 °F 88% 29.92 in 5.0 mi Calm Calm - N/A   Partly Cloudy
7:00 AM 61 °F - 57 °F 83% 29.94 in 5 mi Calm Calm - -   Scattered Clouds
7:00 AM 60.8 °F - 57.2 °F 88% 29.92 in 5.0 mi Calm Calm - N/A   Partly Cloudy
7:30 AM 64.4 °F - 60.8 °F 88% 29.92 in 5.0 mi Calm Calm - N/A   Partly Cloudy
8:00 AM 68.0 °F - 60.8 °F 78% 29.92 in 5.0 mi Calm Calm - N/A   Partly Cloudy
8:30 AM 69.8 °F - 59.0 °F 68% 29.95 in 5.0 mi Variable 1.2 mph - N/A   Partly Cloudy
9:00 AM 73.4 °F - 60.8 °F 65% 29.95 in 5.0 mi Variable 2.3 mph - N/A   Partly Cloudy
9:30 AM 75.2 °F - 62.6 °F 65% 29.95 in 5.0 mi WNW 6.9 mph - N/A   Partly Cloudy
10:00 AM 73 °F - 62 °F 61% 29.96 in 5 mi West 8.1 mph - -   Scattered Clouds
10:00 AM 73.4 °F - 62.6 °F 69% 29.95 in 5.0 mi West 8.1 mph - N/A   Partly Cloudy
10:30 AM 73.4 °F - 62.6 °F 69% 29.95 in 5.0 mi West 6.9 mph - N/A   Partly Cloudy
11:00 AM 75.2 °F - 62.6 °F 65% 29.95 in 5.0 mi WNW 4.6 mph - N/A   Partly Cloudy
11:30 AM 75.2 °F - 62.6 °F 65% 29.95 in 5.0 mi WNW 9.2 mph - N/A   Partly Cloudy
12:00 PM 75.2 °F - 62.6 °F 65% 29.95 in 5.0 mi WNW 8.1 mph - N/A   Partly Cloudy
12:30 PM 75.2 °F - 62.6 °F 65% 29.95 in 5.0 mi West 8.1 mph - N/A   Partly Cloudy
1:00 PM 75 °F - 62 °F 56% 29.95 in 5 mi WNW 8.1 mph - -   Scattered Clouds
1:00 PM 75.2 °F - 62.6 °F 65% 29.95 in 5.0 mi WNW 8.1 mph - N/A   Partly Cloudy
1:30 PM 77.0 °F - 62.6 °F 61% 29.92 in 5.0 mi West 8.1 mph - N/A   Partly Cloudy
2:00 PM 75.2 °F - 62.6 °F 65% 29.92 in 5.0 mi West 8.1 mph - N/A   Partly Cloudy
2:30 PM 77.0 °F - 62.6 °F 61% 29.92 in 5.0 mi WNW 9.2 mph - N/A   Partly Cloudy
3:00 PM 77.0 °F - 62.6 °F 61% 29.92 in 5.0 mi WNW 8.1 mph - N/A   Partly Cloudy
3:30 PM 77.0 °F - 64.4 °F 65% 29.89 in 5.0 mi WNW 9.2 mph - N/A   Partly Cloudy
4:00 PM 79 °F - 64 °F 50% 29.90 in 5 mi NW 5.8 mph - -   Scattered Clouds
4:00 PM 78.8 °F - 62.6 °F 57% 29.89 in 5.0 mi NW 5.8 mph - N/A   Partly Cloudy
4:30 PM 80.6 °F 81.8 °F 62.6 °F 54% 29.86 in 5.0 mi North 6.9 mph - N/A   Partly Cloudy
5:00 PM 82.4 °F 83.4 °F 62.6 °F 51% 29.86 in 5.0 mi North 4.6 mph - N/A   Partly Cloudy
5:30 PM 78.8 °F - 64.4 °F 61% 29.86 in 5.0 mi NNW 11.5 mph - N/A   Partly Cloudy
6:00 PM 77.0 °F - 62.6 °F 61% 29.86 in 5.0 mi NNW 10.4 mph - N/A   Partly Cloudy
7:00 PM 75 °F - 63 °F 57% 29.87 in 5 mi NNW 9.2 mph - -   Scattered Clouds
7:00 PM 75.2 °F - 62.6 °F 65% 29.86 in 5.0 mi NNW 9.2 mph - N/A   Partly Cloudy
7:30 PM 73.4 °F - 64.4 °F 73% 29.86 in 5.0 mi NNW 9.2 mph - N/A   Partly Cloudy
8:00 PM 71.6 °F - 64.4 °F 78% 29.89 in 5.0 mi NW 5.8 mph - N/A   Partly Cloudy
8:30 PM 69.8 °F - 64.4 °F 83% 29.89 in 5.0 mi NW 4.6 mph - N/A   Partly Cloudy
9:00 PM 68.0 °F - 62.6 °F 83% 29.89 in 5.0 mi West 5.8 mph - N/A   Partly Cloudy
9:30 PM 66.2 °F - 62.6 °F 88% 29.92 in 5.0 mi WNW 3.5 mph - N/A   Partly Cloudy
10:00 PM 65 °F - 61 °F 83% 29.93 in 5 mi WSW 3.5 mph - -   Scattered Clouds
10:00 PM 66.2 °F - 60.8 °F 83% 29.92 in 5.0 mi WSW 3.5 mph - N/A   Partly Cloudy
10:30 PM 64.4 °F - 60.8 °F 88% 29.92 in 5.0 mi WSW 3.5 mph - N/A   Partly Cloudy
11:00 PM 64.4 °F - 60.8 °F 88% 29.92 in 5.0 mi West 3.5 mph - N/A   Partly Cloudy
11:30 PM 66.2 °F - 62.6 °F 88% 29.92 in 5.0 mi WSW 5.8 mph - N/A   Partly Cloudy